OBJECT BZ, 68487

Orbit data source: Space-Track

You're viewing an Uncataloged Satellite

Recently launched and/or uncataloged satellites may have evolving metadata. Metadata may include but not limited to: Owner, Maufacturer, Bus, Motor, and Mission.

OBJECT BZ, 68487 is a satellite in SSO that was launched on Mon, 30 Mar 2026 UTC via an FALCON 9 launch vehicle from the Air Force Western Test Range (AFWTR). Unknown objects in Earth's orbit typically refer to objects detected orbiting the Earth but have not yet been identified or cataloged. These objects could be anything from previously untracked satellites, spent rocket stages, debris from satellite collisions, or even natural meteoroids temporarily captured by Earth's gravity.

Loading next visibility...
Identifier
68487, 2026-067BZ
Orbit
SSO
Country
Flag of TBDTBD
Related business
None
Manufacturer
Unknown
Mission
Operational spacecraft
Bus & Motor
Unknown
Mass
Unknown
Launch date (UTC)
2026-03-30 (1 month ago)
Launch vehicle
FALCON 9
Launch site
Air Force Western Test Range (AFWTR)
Object type
Unknown
Shape & HBR
Unknown shape, 1.1 m
Radar Cross Section
RCS unknown

Expand to show TLE details & history
Last TLE update: 11 hours ago

TLE from 11 hours ago
0 OBJECT BZ
1 68487U 26067BZ  26127.45362984  .00002833  00000-0  28226-3 0  9992
2 68487  97.7524  86.3526 0003010  58.0417 302.1095 14.92383929  5654
Epoch: 2026-05-07T10:53Z
TLE epoch observation values (Epoch: 2026-05-07T10:53:13.618Z)
Latitude
0.00005°
Longitude
57.74631°
Altitude
592.433 km
Speed
7.564 km/s
True Right ascension
05h 45m 24s
True Declination
0° 00' 00"
Sunlit
Object was in daylight at epoch
Visualization orbit readout
Latitude
Unknown
Longitude
Unknown
Altitude
Unknown
Speed
Unknown
Apparent Right ascension
Unknown
Apparent Declination
Unknown
Sunlit
N/A
Visualization observer readout
Local Sidereal Time
06:10:42
Azimuth
Unknown
Elevation
Unknown
Doppler factor
Unknown
Orbital elements
Apogee altitude
589.619 km
Perigee altitude
585.426 km
Semi-major axis
6,965.659 km
Eccentricity
0.0003
Inclination
97.7524°
RAAN
86.3526°
Arg. of periapsis
58.0417°
True anomaly
302.08028°
Mean anomaly
302.1095°
Eccentric anomaly
302.09489°
Mean motion
3.73336 °/min
Orbital period
96.43 mins
BSTAR
0.00028226
Loading maneuver chart data...
Computing Atmospheric mass density...
Loading historical data...
Loading historical data...
Loading historical data...
Loading historical data...
Loading historical data...
Loading historical data...
Loading historical data...

Documentation

Showing up to 5 results
|